Location: Unspecified
(0.0000°N, 0.0000°E)
Time: 17:34:23
(UTC+00:00)

Envisat - Pass Details

Date: 30 September 2021
Orbit: 764 x 766 km, 98.2° (Epoch: 22 October)

Event Time Altitude Azimuth Distance (km) Brightness Sun altitude
Rises 04:23:27 0° 22° (NNE) 3,213 6.5 -21.6°
Reaches altitude 10° 04:25:49 10° 28° (NNE) 2,290 5.7 -21.0°
Maximum altitude 04:30:41 49° 102° (ESE) 973 3.9 -19.8°
Drops below altitude 10° 04:35:34 10° 177° (S) 2,299 5.5 -18.6°
Sets 04:37:56 0° 182° (S) 3,227 6.3 -18.0°
